TimeEDT,TemperatureF,Dew PointF,Humidity,Sea Level PressureIn,VisibilityMPH,Wind Direction,Wind SpeedMPH,Gust SpeedMPH,PrecipitationIn,Events,Conditions,WindDirDegrees,DateUTC
12:54 AM,46.0,41.0,83,30.44,10.0,Calm,Calm,-,N/A,,Clear,0,2013-05-02 04:54:00
1:54 AM,44.1,41.0,89,30.43,10.0,Calm,Calm,-,N/A,,Clear,0,2013-05-02 05:54:00
2:54 AM,43.0,39.9,89,30.41,10.0,Calm,Calm,-,N/A,,Clear,0,2013-05-02 06:54:00
3:54 AM,44.1,41.0,89,30.41,10.0,Variable,3.5,-,N/A,,Clear,0,2013-05-02 07:54:00
4:54 AM,41.0,39.0,93,30.42,10.0,Calm,Calm,-,N/A,,Clear,0,2013-05-02 08:54:00
5:54 AM,39.9,39.0,97,30.43,10.0,Calm,Calm,-,N/A,,Clear,0,2013-05-02 09:54:00
6:54 AM,41.0,39.0,93,30.44,10.0,Calm,Calm,-,N/A,,Clear,0,2013-05-02 10:54:00
7:54 AM,50.0,44.1,80,30.45,10.0,Calm,Calm,-,N/A,,Clear,0,2013-05-02 11:54:00
8:54 AM,54.0,44.1,69,30.45,10.0,NNE,3.5,-,N/A,,Clear,20,2013-05-02 12:54:00
9:54 AM,57.0,43.0,59,30.46,10.0,Calm,Calm,-,N/A,,Clear,0,2013-05-02 13:54:00
10:54 AM,59.0,44.1,58,30.46,10.0,SSE,5.8,-,N/A,,Clear,160,2013-05-02 14:54:00
11:54 AM,63.0,43.0,48,30.44,10.0,Variable,3.5,-,N/A,,Clear,0,2013-05-02 15:54:00
12:54 PM,66.0,43.0,43,30.43,10.0,Variable,3.5,-,N/A,,Clear,0,2013-05-02 16:54:00
1:54 PM,66.9,45.0,45,30.41,10.0,Calm,Calm,-,N/A,,Clear,0,2013-05-02 17:54:00
2:54 PM,68.0,44.1,42,30.40,10.0,SE,5.8,-,N/A,,Clear,140,2013-05-02 18:54:00
3:54 PM,70.0,39.9,33,30.38,10.0,Variable,4.6,-,N/A,,Clear,0,2013-05-02 19:54:00
4:54 PM,70.0,41.0,35,30.36,10.0,SSE,5.8,-,N/A,,Clear,160,2013-05-02 20:54:00
5:54 PM,69.1,37.9,32,30.35,10.0,Calm,Calm,-,N/A,,Clear,0,2013-05-02 21:54:00
6:54 PM,66.9,37.0,33,30.34,10.0,Variable,3.5,-,N/A,,Clear,0,2013-05-02 22:54:00
7:54 PM,64.0,37.9,38,30.34,10.0,SSE,3.5,-,N/A,,Clear,150,2013-05-02 23:54:00
8:54 PM,57.0,39.9,53,30.33,10.0,Calm,Calm,-,N/A,,Unknown,0,2013-05-03 00:54:00
9:54 PM,55.9,39.0,53,30.33,10.0,Calm,Calm,-,N/A,,Clear,0,2013-05-03 01:54:00
10:54 PM,53.1,39.0,59,30.33,10.0,Calm,Calm,-,N/A,,Clear,0,2013-05-03 02:54:00
11:54 PM,51.1,39.9,66,30.33,10.0,Calm,Calm,-,N/A,,Clear,0,2013-05-03 03:54:00